Location: Newark
(30.3369°N, 81.6614°W)
Time: 20:07:30
(UTC+00:00)

N. Korean satellite - Pass Details

Date: 04 October 2020
Orbit: 452 x 505 km, 97.2° (Epoch: 28 October)

Event Time Altitude Azimuth Distance (km) Brightness Sun altitude
Rises 10:51:03 0° 11° (N) 2,533 10.3 -7.5°
Reaches altitude 10° 10:53:08 10° 12° (NNE) 1,642 9.4 -7.1°
Maximum altitude 10:56:40 87° 102° (ESE) 472 6.5 -6.3°
Drops below altitude 10° 11:00:06 10° 191° (S) 1,603 9.1 -5.6°
Sets 11:02:07 0° 192° (SSW) 2,466 10.1 -5.2°
